This is the latest recevied weather packets stored in our database for station/object IW1RID-3. If no packets are shown the sender has not sent any weather packets the latest 10 day(s).
| Time | Temp. | Humidity | Pressure | Rain* | Wind** | Luminosity | Snow |
|---|---|---|---|---|---|---|---|
| 1787884291 | 24.44° C | 79% | 1073.9 hPa | - | - | - | - |
| 1787883086 | 24.44° C | 79% | 1072.8 hPa | - | - | - | - |
| 1787881882 | 25° C | 78% | 1073.2 hPa | - | - | - | - |
| 1787880677 | 25.56° C | 75% | 1073.4 hPa | - | - | - | - |
| 1787879472 | 25.56° C | 77% | 1073.5 hPa | - | - | - | - |
| 1787878268 | 25.56° C | 74% | 1072.9 hPa | - | - | - | - |
| 1787877063 | 25.56° C | 78% | 1073.9 hPa | - | - | - | - |
| 1787875858 | 25.56° C | 76% | 1074.3 hPa | - | - | - | - |
| 1787874653 | 25.56° C | 78% | 1074.1 hPa | - | - | - | - |
| 1787873449 | 25.56° C | 78% | 1074.8 hPa | - | - | - | - |
| 1787872244 | 25° C | 84% | 1073.3 hPa | - | - | - | - |
| 1787871040 | 25.56° C | 80% | 1073.4 hPa | - | - | - | - |
| 1787869835 | 26.11° C | 75% | 1073.3 hPa | - | - | - | - |
| 1787868631 | 25° C | 82% | 1073.8 hPa | - | - | - | - |
| 1787867426 | 26.11° C | 74% | 1073 hPa | - | - | - | - |
| 1787866221 | 25.56° C | 77% | 1073.5 hPa | - | - | - | - |
| 1787865016 | 25.56° C | 82% | 1073.5 hPa | - | - | - | - |
| 1787863812 | 26.67° C | 76% | 1075 hPa | - | - | - | - |
| 1787862608 | 26.67° C | 77% | 1074.5 hPa | - | - | - | - |
| 1787861402 | 26.67° C | 78% | 1074.1 hPa | - | - | - | - |
| 1787860198 | 26.67° C | 78% | 1073.4 hPa | - | - | - | - |
| 1787858993 | 27.22° C | 84% | 1072.9 hPa | - | - | - | - |
| 1787857788 | 27.78° C | 81% | 1072.6 hPa | - | - | - | - |
| 1787856583 | 27.78° C | 79% | 1072.8 hPa | - | - | - | - |
| 1787855378 | 27.78° C | 79% | 1072.2 hPa | - | - | - | - |
* Rain since midnight (hover to see other rain measurements)
** Current wind speed in m/s (hover to see current wind gust speed)